Location: Grevenbroich
(51.0902°N, 6.5859°E)
Time: 06:06:25
(UTC+01:00)

ISS - Visible Passes

Search period start: 26 February 2020 00:00
Search period end: 07 March 2020 00:00
Orbit: 415 x 423 km, 51.6° (Epoch: 27 February)

Date Brightness Start Highest point End Pass type
(mag) Time Alt. Az. Time Alt. Az. Time Alt. Az.
26 Feb -1.6 05:11:56 18° SSE 05:12:33 19° SE 05:15:03 10° E visible
26 Feb -3.4 06:45:35 10° WSW 06:48:56 67° SSE 06:52:19 10° E visible
27 Feb -0.6 04:26:22 11° ESE 04:26:22 11° ESE 04:26:50 10° ESE visible
27 Feb -3.1 05:59:19 20° SW 06:01:21 51° SSE 06:04:39 10° E visible
28 Feb -2.7 05:13:39 37° SSE 05:13:47 37° SSE 05:16:56 10° E visible
28 Feb -3.7 06:47:02 10° W 06:50:26 87° N 06:53:50 10° E visible
29 Feb -1.1 04:27:54 18° ESE 04:27:54 18° ESE 04:29:09 10° E visible
29 Feb -3.8 06:00:51 24° WSW 06:02:46 82° SSE 06:06:09 10° E visible
01 Mar -3.7 05:15:03 66° S 05:15:07 66° SSE 05:18:29 10° E visible
02 Mar -1.5 04:29:12 24° E 04:29:12 24° E 04:30:47 10° E visible
02 Mar -3.8 06:02:09 22° W 06:04:14 80° N 06:07:37 10° E visible
03 Mar -3.9 05:16:16 75° W 05:16:31 87° N 05:19:55 10° E visible
04 Mar -1.8 04:30:22 30° E 04:30:22 30° E 04:32:13 10° E visible
04 Mar -3.7 06:03:19 18° W 06:05:41 83° N 06:09:04 10° E visible
05 Mar -0.2 03:44:28 10° E 03:44:28 10° E 03:44:29 10° E visible
05 Mar -3.8 05:17:24 59° WNW 05:17:57 79° N 05:21:20 10° E visible
06 Mar -2.1 04:31:30 35° E 04:31:30 35° E 04:33:36 10° E visible
06 Mar -3.8 06:04:26 16° W 06:07:02 75° SSW 06:10:25 10° ESE visible
